Stündliche Wetter Bolshie Kaskevichi

Heute, 27 November, Freitag

Zeit Temperatur Niederschläge Wind Luftdruck Luftfeuchtigkeit
00:00 -2°C° 0 mm 4 m/S 742 mmHg 88%
01:00 -2°C° 0 mm 4 m/S 742 mmHg 88%
02:00 -2°C° 0 mm 4 m/S 741 mmHg 88%
03:00 -2°C° 0 mm 4 m/S 741 mmHg 88%
04:00 -2°C° 0 mm 4 m/S 741 mmHg 89%
05:00 -2°C° 0 mm 4 m/S 740 mmHg 89%
06:00 -2°C° 0.1 mm 4 m/S 740 mmHg 90%
07:00 -1°C° 0.1 mm 4 m/S 739 mmHg 92%
08:00 0°C° 0.1 mm 4 m/S 739 mmHg 94%
09:00 0°C° 0.2 mm 5 m/S 739 mmHg 93%
10:00 0°C° 0.2 mm 5 m/S 738 mmHg 93%
11:00 +1°C° 0.2 mm 5 m/S 738 mmHg 93%
12:00 +1°C° 0.1 mm 5 m/S 738 mmHg 92%
13:00 +1°C° 0.1 mm 5 m/S 738 mmHg 91%
14:00 +2°C° 0.1 mm 5 m/S 738 mmHg 89%
15:00 +1°C° 0.3 mm 5 m/S 738 mmHg 90%
16:00 +1°C° 0.3 mm 6 m/S 738 mmHg 91%
17:00 -1°C° 0.3 mm 6 m/S 738 mmHg 92%
18:00 0°C° 0 mm 5 m/S 739 mmHg 90%
19:00 -1°C° 0 mm 4 m/S 739 mmHg 87%
20:00 -1°C° 0 mm 3 m/S 739 mmHg 85%
21:00 -1°C° 0 mm 3 m/S 740 mmHg 87%
22:00 -1°C° 0 mm 2 m/S 740 mmHg 90%
23:00 -2°C° 0 mm 2 m/S 740 mmHg 92%

Morgen, 28 November, Samstag

Zeit Temperatur Niederschläge Wind Luftdruck Luftfeuchtigkeit
00:00 -2°C° 0 mm 2 m/S 741 mmHg 93%
01:00 -2°C° 0 mm 2 m/S 741 mmHg 93%
02:00 -2°C° 0 mm 2 m/S 742 mmHg 94%
03:00 0°C° 0 mm 1 m/S 742 mmHg 94%
04:00 0°C° 0 mm 1 m/S 742 mmHg 95%
05:00 0°C° 0 mm 1 m/S 742 mmHg 95%
06:00 0°C° 0 mm 1 m/S 742 mmHg 95%
07:00 0°C° 0 mm 1 m/S 743 mmHg 95%
08:00 -1°C° 0 mm 1 m/S 743 mmHg 95%
09:00 -1°C° 0 mm 0 m/S 744 mmHg 91%
10:00 0°C° 0 mm 0 m/S 744 mmHg 87%
11:00 0°C° 0 mm 0 m/S 744 mmHg 83%
12:00 0°C° 0 mm 0 m/S 745 mmHg 82%
13:00 +2°C° 0 mm 1 m/S 745 mmHg 80%
14:00 +2°C° 0 mm 1 m/S 745 mmHg 79%
15:00 +1°C° 0 mm 1 m/S 745 mmHg 81%
16:00 +1°C° 0 mm 1 m/S 745 mmHg 83%
17:00 +1°C° 0 mm 1 m/S 746 mmHg 85%
18:00 +1°C° 0 mm 1 m/S 746 mmHg 88%
19:00 -2°C° 0 mm 2 m/S 746 mmHg 90%
20:00 -2°C° 0 mm 2 m/S 747 mmHg 93%
21:00 -2°C° 0 mm 2 m/S 747 mmHg 94%
22:00 -1°C° 0 mm 3 m/S 747 mmHg 94%
23:00 -1°C° 0 mm 3 m/S 747 mmHg 95%

übermorgen, 29 November, Sonntag

Zeit Temperatur Niederschläge Wind Luftdruck Luftfeuchtigkeit
00:00 -1°C° 0 mm 3 m/S 748 mmHg 93%
01:00 -1°C° 0 mm 3 m/S 748 mmHg 91%
02:00 -1°C° 0 mm 3 m/S 748 mmHg 90%
03:00 -1°C° 0.1 mm 3 m/S 748 mmHg 92%
04:00 -1°C° 0.1 mm 3 m/S 748 mmHg 93%
05:00 -1°C° 0.1 mm 3 m/S 747 mmHg 95%
06:00 -1°C° 0.1 mm 3 m/S 747 mmHg 94%
07:00 -2°C° 0.1 mm 4 m/S 747 mmHg 93%
08:00 -2°C° 0.1 mm 4 m/S 747 mmHg 93%
09:00 -2°C° 0.2 mm 4 m/S 747 mmHg 92%
10:00 -2°C° 0.2 mm 4 m/S 746 mmHg 92%
11:00 -2°C° 0.2 mm 4 m/S 746 mmHg 92%
12:00 -2°C° 0.6 mm 4 m/S 746 mmHg 94%
13:00 -2°C° 0.6 mm 4 m/S 745 mmHg 96%
14:00 -2°C° 0.6 mm 4 m/S 744 mmHg 97%
15:00 -1°C° 1.2 mm 3 m/S 744 mmHg 98%
16:00 +1°C° 1.2 mm 2 m/S 744 mmHg 98%
17:00 +1°C° 1.2 mm 2 m/S 743 mmHg 99%
18:00 +1°C° 0.1 mm 2 m/S 744 mmHg 98%
19:00 0°C° 0.1 mm 3 m/S 744 mmHg 98%
20:00 0°C° 0.1 mm 3 m/S 744 mmHg 98%
21:00 0°C° 0 mm 3 m/S 745 mmHg 97%
22:00 -1°C° 0 mm 3 m/S 745 mmHg 96%
23:00 -1°C° 0 mm 3 m/S 745 mmHg 96%

30 November, Montag

Zeit Temperatur Niederschläge Wind Luftdruck Luftfeuchtigkeit
00:00 -1°C° 0 mm 3 m/S 746 mmHg 95%
01:00 -1°C° 0 mm 3 m/S 746 mmHg 95%
02:00 -1°C° 0 mm 3 m/S 747 mmHg 95%
03:00 -2°C° 0 mm 3 m/S 747 mmHg 94%
04:00 -2°C° 0 mm 3 m/S 747 mmHg 93%
05:00 -3°C° 0 mm 2 m/S 747 mmHg 92%
06:00 -2°C° 0 mm 2 m/S 748 mmHg 90%
07:00 -2°C° 0 mm 2 m/S 748 mmHg 88%
08:00 -1°C° 0 mm 2 m/S 749 mmHg 87%
09:00 -1°C° 0 mm 3 m/S 749 mmHg 86%
10:00 -1°C° 0 mm 3 m/S 749 mmHg 85%
11:00 -2°C° 0 mm 4 m/S 750 mmHg 85%
12:00 -2°C° 0 mm 4 m/S 750 mmHg 85%
13:00 -1°C° 0 mm 3 m/S 750 mmHg 86%
14:00 -1°C° 0 mm 3 m/S 750 mmHg 86%
15:00 -1°C° 0 mm 3 m/S 750 mmHg 86%
16:00 -2°C° 0 mm 3 m/S 751 mmHg 87%
17:00 -2°C° 0 mm 3 m/S 751 mmHg 87%
18:00 -2°C° 0 mm 3 m/S 751 mmHg 87%
19:00 -2°C° 0 mm 3 m/S 752 mmHg 86%
20:00 -2°C° 0 mm 3 m/S 752 mmHg 86%
21:00 -4°C° 0 mm 3 m/S 752 mmHg 87%
22:00 -4°C° 0 mm 3 m/S 753 mmHg 89%
23:00 -3°C° 0 mm 2 m/S 753 mmHg 90%

1 Dezember, Dienstag

Zeit Temperatur Niederschläge Wind Luftdruck Luftfeuchtigkeit
00:00 -4°C° 0 mm 2 m/S 753 mmHg 92%
01:00 -4°C° 0 mm 2 m/S 753 mmHg 93%
02:00 -4°C° 0 mm 2 m/S 753 mmHg 95%
03:00 -4°C° 0 mm 2 m/S 753 mmHg 95%
04:00 -4°C° 0 mm 2 m/S 753 mmHg 95%
05:00 -4°C° 0 mm 2 m/S 753 mmHg 95%
06:00 -5°C° 0 mm 2 m/S 753 mmHg 94%
07:00 -5°C° 0 mm 2 m/S 753 mmHg 94%
08:00 -5°C° 0 mm 2 m/S 754 mmHg 94%
09:00 -4°C° 0 mm 2 m/S 754 mmHg 91%
10:00 -3°C° 0 mm 2 m/S 754 mmHg 89%
11:00 -4°C° 0 mm 3 m/S 754 mmHg 86%
12:00 -4°C° 0 mm 3 m/S 753 mmHg 85%
13:00 -2°C° 0 mm 3 m/S 753 mmHg 85%
14:00 -2°C° 0 mm 3 m/S 753 mmHg 84%
15:00 -3°C° 0 mm 2 m/S 753 mmHg 87%
16:00 -3°C° 0 mm 2 m/S 752 mmHg 89%
17:00 -4°C° 0 mm 2 m/S 752 mmHg 91%
18:00 -4°C° 0 mm 2 m/S 752 mmHg 91%
19:00 -4°C° 0 mm 2 m/S 752 mmHg 91%
20:00 -4°C° 0 mm 2 m/S 752 mmHg 91%
21:00 -4°C° 0 mm 2 m/S 752 mmHg 91%
22:00 -4°C° 0 mm 2 m/S 752 mmHg 91%
23:00 -4°C° 0 mm 2 m/S 752 mmHg 91%

2 Dezember, Mittwoch

Zeit Temperatur Niederschläge Wind Luftdruck Luftfeuchtigkeit
00:00 -4°C° 0 mm 2 m/S 752 mmHg 91%
01:00 -4°C° 0 mm 2 m/S 752 mmHg 90%
02:00 -2°C° 0 mm 1 m/S 752 mmHg 90%
03:00 -2°C° 0 mm 1 m/S 752 mmHg 89%
04:00 -2°C° 0 mm 1 m/S 752 mmHg 89%
05:00 -3°C° 0 mm 1 m/S 752 mmHg 89%
06:00 -3°C° 0 mm 1 m/S 752 mmHg 88%
07:00 -3°C° 0 mm 1 m/S 752 mmHg 87%
08:00 -3°C° 0 mm 1 m/S 752 mmHg 87%
09:00 -2°C° 0 mm 1 m/S 752 mmHg 87%
10:00 -1°C° 0 mm 1 m/S 752 mmHg 87%
11:00 0°C° 0 mm 1 m/S 752 mmHg 87%
12:00 -2°C° 0 mm 2 m/S 752 mmHg 89%
13:00 -2°C° 0 mm 2 m/S 752 mmHg 91%
14:00 -2°C° 0 mm 2 m/S 752 mmHg 93%
15:00 -2°C° 0 mm 2 m/S 752 mmHg 93%
16:00 -3°C° 0 mm 2 m/S 753 mmHg 93%
17:00 -3°C° 0 mm 2 m/S 753 mmHg 93%
18:00 -3°C° 0 mm 2 m/S 753 mmHg 93%
19:00 -4°C° 0 mm 2 m/S 753 mmHg 93%
20:00 -4°C° 0 mm 2 m/S 753 mmHg 93%
21:00 -4°C° 0 mm 2 m/S 754 mmHg 94%
22:00 -4°C° 0 mm 2 m/S 754 mmHg 94%
23:00 -5°C° 0 mm 2 m/S 754 mmHg 94%
Mehr zeigen

Wir brauchen deine Erlaubnis

Meteoprog und unser Service Anbieter werden persönliche Daten aufbewahren, so wie Cookies, Geräte Bezeichnung oder ähnliche Technologien von deinem Gerät und Prozess, so wie Persönliche Daten Inhalte und Werbungen, genauso wie social Media und den Verkehr zu analysieren.

  • Aufbewahrung und/oder Zugang zu deiner Geräte Informationen.

    Cookies, Geräte Bezeichnung oder andere Informationen, können aufbewahrt oder Zugang zu deinem Gerät erhalten, für den Grund, der oben angegeben wird.

  • Personalisierte Werbung und Inhalte, Messungen, Einblick in das Publikum und Produkt Entwicklung.

    Werbungen und Inhalte können personalisiert werden, basierend auf ein Profil. Mehr Daten können besser personalisierte Werbungen und Inhalte hinzufügen. Werbung und Inhalte können gezeigt und gemessen werden. Einblicke über das Publikum, welche die Werbung gesehen haben und den Inhalt, können abgeleitet werden. So wie Daten können genutzt werden, um es zu verbessern oder die Benutzer Erfahrung zu verbessern das System und die Software.

Wenn du “Ich stimme zu” klickst, erlaubst du uns, die Cookies zu benutzen die Geräte Bezeichnung, den Web oder ähnliche Technologien zu benutzen. Deine Settings, können in deinem Gerät bei deinem Browser geändert werden.

Für den bestimmten Zweck, berechtigten Interessen beruhen darauf, mehr als auf den Inhalt. Du kannst mehr darüber in unseren Privaten und Cookie Politik lesen.